User: anonymous   Login
Location: Unspecified
(0.0000°N, 0.0000°E)
Time: 03:22:45
(UTC+01:00)
Language:

Milstar 3 - Orbit

View from above orbital plane
View from above orbital plane
View from above satellite
View from above satellite

Ground track
Ground track

The orbit data is extracted from the following two-line orbital elements,

1 25724U 99023A   14328.97746206 0.00000000  00000-0  00000-0 0    05
2 25724  28.2146   3.7506 2127299 265.4697  94.5298  9.37434238    07
Epoch (UTC): 24 November 2014 23:27:32
Eccentricity: 0.2127299
inclination: 28.2146°
perigee height: 1102 km
apogee height: 5144 km
right ascension of ascending node: 3.7506°
argument of perigee: 265.4697°
revolutions per day: 9.37434238
mean anomaly at epoch: 94.5298°
orbit number at epoch: 0

The dashed part of the orbit path shows where the satellite is in the earth's shadow,  

DLR